{"data":{"norad_id":59708,"intl_designator":"2024-088A","name":"STARLINK-11107 [DTC]","alt_names":[],"object_type":"PAYLOAD","status":"ACTIVE","operator":null,"country":"US","launch_date":"2024-05-10","launch_site_code":"AFWTR","launch_vehicle":null,"mission":null,"orbit_class":"UNKNOWN","rcs_meters":null,"size_class":null,"mass_kg":null,"dimensions":null,"purposes":["comms"],"wikipedia_slug":null,"has_3d_model":false,"image_url":null,"decayed_at":null,"tle_current":{"epoch":"2026-09-21T18:32:47.480928Z","epoch_age_seconds":61321,"freshness":"FRESH","line1":"1 59708U 24088A   26264.77277177  .00000430  00000+0  84078-5 0  9994","line2":"2 59708  53.1582  79.3448 0000950 105.0483 255.0640 15.69707302137053","mean_motion":15.69707302,"eccentricity":9.5e-5,"inclination_deg":53.1582,"raan_deg":79.3448,"arg_perigee_deg":105.0483,"mean_anomaly_deg":255.064,"bstar":8.4078e-6,"rev_number":13705,"period_min":91.736847892933,"perigee_km":359.09437328435,"apogee_km":360.37456886385,"semimajor_km":6737.8714710741,"source":"CELESTRAK","updated_at":"2026-09-22T09:00:49.056998Z"}}}